TimeCST,TemperatureF,Dew PointF,Humidity,Sea Level PressureIn,VisibilityMPH,Wind Direction,Wind SpeedMPH,Gust SpeedMPH,PrecipitationIn,Events,Conditions,WindDirDegrees,DateUTC
12:13 AM,23.0,15.8,74,30.25,10.0,SSE,8.1,-,N/A,,Clear,150,2013-03-08 06:13:00
12:33 AM,21.2,15.8,80,30.25,10.0,SSE,8.1,-,N/A,,Clear,160,2013-03-08 06:33:00
12:53 AM,21.2,15.8,80,30.25,10.0,SSE,5.8,-,N/A,,Clear,150,2013-03-08 06:53:00
1:13 AM,21.2,15.8,80,30.25,10.0,SSE,5.8,-,N/A,,Clear,150,2013-03-08 07:13:00
1:33 AM,19.4,15.8,86,30.25,10.0,SE,6.9,-,N/A,,Clear,140,2013-03-08 07:33:00
1:53 AM,19.4,15.8,86,30.25,10.0,SE,4.6,-,N/A,,Clear,140,2013-03-08 07:53:00
2:13 AM,19.4,15.8,86,30.25,10.0,SE,5.8,-,N/A,,Clear,140,2013-03-08 08:13:00
2:33 AM,19.4,15.8,86,30.23,10.0,SE,8.1,-,N/A,,Clear,140,2013-03-08 08:33:00
2:53 AM,19.4,15.8,86,30.22,10.0,SE,5.8,-,N/A,,Clear,140,2013-03-08 08:53:00
3:13 AM,19.4,15.8,86,30.22,10.0,SSE,5.8,-,N/A,,Clear,160,2013-03-08 09:13:00
3:33 AM,19.4,14.0,80,30.22,10.0,South,4.6,-,N/A,,Clear,170,2013-03-08 09:33:00
3:53 AM,19.4,15.8,86,30.22,10.0,Calm,Calm,-,N/A,,Mostly Cloudy,0,2013-03-08 09:53:00
4:13 AM,19.4,15.8,86,30.22,10.0,SSE,3.5,-,N/A,,Overcast,160,2013-03-08 10:13:00
4:33 AM,19.4,15.8,86,30.22,10.0,SE,3.5,-,N/A,,Mostly Cloudy,140,2013-03-08 10:33:00
4:53 AM,19.4,15.8,86,30.22,10.0,SSE,3.5,-,N/A,,Mostly Cloudy,160,2013-03-08 10:53:00
5:13 AM,19.4,15.8,86,30.22,10.0,Calm,Calm,-,N/A,,Overcast,0,2013-03-08 11:13:00
5:33 AM,19.4,15.8,86,30.21,10.0,Calm,Calm,-,N/A,,Overcast,0,2013-03-08 11:33:00
5:53 AM,21.2,15.8,80,30.21,10.0,South,3.5,-,N/A,,Overcast,170,2013-03-08 11:53:00
6:33 AM,21.2,15.8,80,30.21,10.0,South,4.6,-,N/A,,Overcast,190,2013-03-08 12:33:00
6:53 AM,21.2,15.8,80,30.21,10.0,SSW,5.8,-,N/A,,Overcast,200,2013-03-08 12:53:00
7:13 AM,21.2,15.8,80,30.21,10.0,South,6.9,-,N/A,,Overcast,190,2013-03-08 13:13:00
7:33 AM,21.2,15.8,80,30.21,10.0,South,5.8,-,N/A,,Overcast,190,2013-03-08 13:33:00
7:53 AM,21.2,15.8,80,30.22,10.0,SSW,5.8,-,N/A,,Overcast,200,2013-03-08 13:53:00
8:13 AM,23.0,17.6,80,30.22,10.0,South,6.9,-,N/A,,Overcast,190,2013-03-08 14:13:00
8:33 AM,23.0,17.6,80,30.22,10.0,SSW,8.1,-,N/A,,Overcast,200,2013-03-08 14:33:00
8:53 AM,23.0,17.6,80,30.21,10.0,South,5.8,-,N/A,,Overcast,190,2013-03-08 14:53:00
9:13 AM,23.0,17.6,80,30.21,10.0,SSW,6.9,-,N/A,,Overcast,210,2013-03-08 15:13:00
9:33 AM,24.8,17.6,74,30.21,10.0,SSW,8.1,-,N/A,,Overcast,200,2013-03-08 15:33:00
9:53 AM,24.8,17.6,74,30.22,7.0,South,6.9,-,N/A,,Overcast,190,2013-03-08 15:53:00
10:13 AM,24.8,19.4,80,30.22,7.0,SSW,5.8,-,N/A,,Overcast,200,2013-03-08 16:13:00
10:33 AM,24.8,19.4,80,30.22,7.0,SW,5.8,-,N/A,,Overcast,230,2013-03-08 16:33:00
10:53 AM,24.8,19.4,80,30.22,7.0,SSW,5.8,-,N/A,,Overcast,210,2013-03-08 16:53:00
11:13 AM,26.6,19.4,74,30.22,7.0,SSW,5.8,-,N/A,,Overcast,200,2013-03-08 17:13:00
11:33 AM,26.6,19.4,74,30.22,7.0,SSW,5.8,-,N/A,,Overcast,200,2013-03-08 17:33:00
11:53 AM,26.6,21.2,80,30.21,5.0,Calm,Calm,-,N/A,,Haze,0,2013-03-08 17:53:00
12:13 PM,26.6,21.2,80,30.21,5.0,SSW,5.8,-,N/A,,Haze,200,2013-03-08 18:13:00
12:33 PM,28.4,21.2,74,30.21,7.0,South,4.6,-,N/A,,Overcast,180,2013-03-08 18:33:00
12:53 PM,28.4,21.2,74,30.20,5.0,SSW,4.6,-,N/A,,Haze,210,2013-03-08 18:53:00
1:13 PM,28.4,21.2,74,30.19,7.0,Calm,Calm,-,N/A,,Overcast,0,2013-03-08 19:13:00
1:33 PM,28.4,21.2,74,30.19,7.0,Calm,Calm,-,N/A,,Overcast,0,2013-03-08 19:33:00
1:53 PM,30.2,23.0,75,30.19,7.0,South,4.6,-,N/A,,Overcast,180,2013-03-08 19:53:00
2:13 PM,30.2,23.0,75,30.19,5.0,South,4.6,-,N/A,,Haze,180,2013-03-08 20:13:00
2:34 PM,30.2,23.0,75,30.19,7.0,SSW,5.8,-,N/A,,Overcast,210,2013-03-08 20:34:00
2:53 PM,30.2,23.0,75,30.19,7.0,SSW,3.5,-,N/A,,Overcast,200,2013-03-08 20:53:00
3:13 PM,30.2,24.8,80,30.19,7.0,SSW,5.8,-,N/A,,Overcast,200,2013-03-08 21:13:00
3:33 PM,30.2,24.8,80,30.19,7.0,South,6.9,-,N/A,,Overcast,190,2013-03-08 21:33:00
3:53 PM,30.2,24.8,80,30.19,7.0,SW,4.6,-,N/A,,Overcast,220,2013-03-08 21:53:00
4:13 PM,30.2,24.8,80,30.19,7.0,SSW,5.8,-,N/A,,Mostly Cloudy,200,2013-03-08 22:13:00
4:33 PM,30.2,24.8,80,30.19,7.0,SSW,5.8,-,N/A,,Mostly Cloudy,200,2013-03-08 22:33:00
4:53 PM,30.2,24.8,80,30.19,7.0,SSW,4.6,-,N/A,,Mostly Cloudy,200,2013-03-08 22:53:00
5:13 PM,30.2,24.8,80,30.18,7.0,SSW,4.6,-,N/A,,Mostly Cloudy,200,2013-03-08 23:13:00
5:33 PM,30.2,23.0,75,30.18,7.0,Calm,Calm,-,N/A,,Scattered Clouds,0,2013-03-08 23:33:00
5:53 PM,28.4,23.0,80,30.18,5.0,Calm,Calm,-,N/A,,Haze,0,2013-03-08 23:53:00
6:14 PM,28.4,23.0,80,30.17,7.0,Calm,Calm,-,N/A,,Clear,0,2013-03-09 00:14:00
6:33 PM,30.2,24.8,80,30.16,7.0,Calm,Calm,-,N/A,,Scattered Clouds,0,2013-03-09 00:33:00
6:53 PM,28.4,24.8,86,30.16,7.0,Calm,Calm,-,N/A,,Clear,0,2013-03-09 00:53:00
7:13 PM,28.4,24.8,86,30.15,7.0,Calm,Calm,-,N/A,,Scattered Clouds,0,2013-03-09 01:13:00
7:33 PM,28.4,23.0,80,30.15,7.0,Calm,Calm,-,N/A,,Mostly Cloudy,0,2013-03-09 01:33:00
7:53 PM,28.4,23.0,80,30.15,7.0,Calm,Calm,-,N/A,,Overcast,0,2013-03-09 01:53:00
8:13 PM,30.2,24.8,80,30.15,7.0,Calm,Calm,-,N/A,,Mostly Cloudy,0,2013-03-09 02:13:00
8:33 PM,30.2,24.8,80,30.14,7.0,Calm,Calm,-,N/A,,Scattered Clouds,0,2013-03-09 02:33:00
8:53 PM,30.2,23.0,75,30.13,7.0,Calm,Calm,-,N/A,,Scattered Clouds,0,2013-03-09 02:53:00
9:13 PM,28.4,23.0,80,30.15,7.0,Calm,Calm,-,N/A,,Scattered Clouds,0,2013-03-09 03:13:00
9:33 PM,28.4,23.0,80,30.14,7.0,Calm,Calm,-,N/A,,Scattered Clouds,0,2013-03-09 03:33:00
9:53 PM,26.6,23.0,86,30.13,5.0,Calm,Calm,-,N/A,,Clear,0,2013-03-09 03:53:00
10:13 PM,28.4,23.0,80,30.12,5.0,Calm,Calm,-,N/A,,Haze,0,2013-03-09 04:13:00
10:33 PM,28.4,23.0,80,30.10,5.0,East,4.6,-,N/A,,Haze,100,2013-03-09 04:33:00
10:53 PM,26.6,21.2,80,30.09,5.0,ESE,3.5,-,N/A,,Haze,110,2013-03-09 04:53:00
11:13 PM,28.4,23.0,80,30.09,5.0,Calm,Calm,-,N/A,,Haze,0,2013-03-09 05:13:00
11:33 PM,28.4,23.0,80,30.08,5.0,Calm,Calm,-,N/A,,Haze,0,2013-03-09 05:33:00
11:53 PM,26.6,23.0,86,30.07,5.0,Calm,Calm,-,N/A,,Clear,0,2013-03-09 05:53:00